Ciampino, Italy

2:37 PM CET on February 21, 2017 (GMT +0100)
Ciampino

Weather History for LIRA - March, 2014

Change the Weather History Date:

Tuesday, March 25, 2014

  Actual Average Record
Temperature  
Mean Temperature 45 °F -  
Max Temperature 54 °F 64 °F 69 °F (2001)
Min Temperature 36 °F 45 °F 35 °F (2008)
Degree Days  
Heating Degree Days 20    
Moisture  
Dew Point 37 °F    
Average Humidity 76    
Maximum Humidity 87    
Minimum Humidity 39    
Precipitation  
Precipitation 0.04 in 0.09 in - ()
Sea Level Pressure  
Sea Level Pressure 29.75 in    
Wind  
Wind Speed 3 mph ()    
Max Wind Speed 15 mph    
Max Gust Speed -    
Visibility 5.9 miles    
Events Rain    
Averages and records for this station are not official NWS values.
T = Trace of Precipitation, MM = Missing Value Source: Averaged Metar Reports

Daily Weather History Graph

Daily Weather History Graph

Search for Another Location

Airport or City:

Trip Planner

Search our weather history database for the weather conditions in past years. The results will help you decide how hot, cold, wet, or windy it might be!

Date:

Astronomy

Mar. 25, 2014 Rise Set
Actual Time 6:05 AM CET 6:27 PM CET
Civil Twilight 5:37 AM CET 6:55 PM CET
Nautical Twilight 5:04 AM CET 7:27 PM CET
Astronomical Twilight 4:30 AM CET 8:01 PM CET
Moon 2:17 AM CET (3/25) 12:34 PM CET (3/25)
Length of Visible Light 13h 17m
Length of Day
12h 22m
Waning Crescent, 34% of the Moon is Illuminated
Mar 25
Waning Crescent
Mar 30
New
Apr 7
First Quarter
Apr 15
Full
Apr 22
Last Quarter

Hourly Weather History & Observations

Time (CET) Temp. Windchill Dew Point Humidity Pressure Visibility Wind Dir Wind Speed Gust Speed Precip Events Conditions
12:15 AM 39.2 °F - 35.6 °F 87% 29.83 in 6.2 mi ENE 2.3 mph - N/A   Partly Cloudy
12:45 AM 39.2 °F - 35.6 °F 87% 29.83 in 6.2 mi East 2.3 mph - N/A   Partly Cloudy
1:00 AM 39 °F - 35 °F 81% 29.85 in 6 mi East 2.3 mph - -   Partly Cloudy
1:15 AM 41.0 °F - 35.6 °F 81% 29.83 in 6.2 mi Calm Calm - N/A   Partly Cloudy
1:45 AM 39.2 °F 37.0 °F 35.6 °F 87% 29.83 in 6.2 mi NE 3.5 mph - N/A   Partly Cloudy
2:15 AM 39.2 °F - 35.6 °F 87% 29.83 in 6.2 mi Calm Calm - N/A   Partly Cloudy
2:45 AM 39.2 °F - 33.8 °F 81% 29.80 in - Calm Calm - N/A   Clear
3:15 AM 37.4 °F - 33.8 °F 87% 29.80 in - Calm Calm - N/A   Clear
3:45 AM 37.4 °F - 33.8 °F 87% 29.80 in - Calm Calm - N/A   Clear
4:00 AM 37 °F - 33 °F 81% 29.83 in 6 mi Calm Calm - -  
4:15 AM 37.4 °F - 33.8 °F 87% 29.80 in 5.0 mi Calm Calm - N/A   Partly Cloudy
4:45 AM 37.4 °F - 33.8 °F 87% 29.80 in 5.0 mi Calm Calm - N/A   Partly Cloudy
5:15 AM 37.4 °F - 33.8 °F 87% 29.80 in 5.0 mi Calm Calm - N/A   Partly Cloudy
5:45 AM 37.4 °F 34.9 °F 33.8 °F 87% 29.80 in 5.0 mi NNE 3.5 mph - N/A   Partly Cloudy
6:15 AM 37.4 °F - 33.8 °F 87% 29.80 in 6.2 mi Calm Calm - N/A   Partly Cloudy
6:45 AM 37.4 °F - 32.0 °F 81% 29.80 in 6.2 mi Calm Calm - N/A   Partly Cloudy
7:00 AM 37 °F - 33 °F 79% 29.82 in 6 mi Calm Calm - -   Scattered Clouds
7:15 AM 37.4 °F - 33.8 °F 87% 29.80 in 6.2 mi NNE 2.3 mph - N/A   Partly Cloudy
7:45 AM 39.2 °F - 33.8 °F 81% 29.80 in 6.2 mi NE 2.3 mph - N/A   Partly Cloudy
8:15 AM 41.0 °F - 37.4 °F 87% 29.80 in 6.2 mi Calm Calm - N/A   Partly Cloudy
8:45 AM 44.6 °F - 39.2 °F 81% 29.77 in 6.2 mi NNE 2.3 mph - N/A   Partly Cloudy
9:15 AM 48.2 °F - 42.8 °F 82% 29.77 in 6.2 mi NNE 3.5 mph - N/A   Partly Cloudy
9:45 AM 48.2 °F - 41.0 °F 76% 29.77 in 6.2 mi North 3.5 mph - N/A   Partly Cloudy
10:00 AM 49 °F - 41 °F 64% 29.80 in 6 mi North 3.5 mph - -   Scattered Clouds
10:15 AM 51.8 °F - 39.2 °F 62% 29.77 in 6.2 mi NW 1.2 mph - N/A   Partly Cloudy
10:45 AM 51.8 °F - 39.2 °F 62% 29.77 in 6.2 mi West 2.3 mph - N/A   Partly Cloudy
11:15 AM 53.6 °F - 33.8 °F 47% 29.77 in 6.2 mi SSW 2.3 mph - N/A   Scattered Clouds
11:45 AM 55.4 °F - 33.8 °F 44% 29.77 in 6.2 mi South 3.5 mph - N/A   Scattered Clouds
12:15 PM 53.6 °F - 32.0 °F 44% 29.74 in 6.2 mi South 8.1 mph - N/A   Scattered Clouds
12:45 PM 53.6 °F - 35.6 °F 51% 29.74 in 6.2 mi South 9.2 mph - N/A   Scattered Clouds
1:00 PM 53 °F - 35 °F 39% 29.76 in 6 mi South 9.2 mph - -   Overcast
1:15 PM 50.0 °F - 39.2 °F 66% 29.74 in 6.2 mi South 13.8 mph - N/A   Scattered Clouds
1:45 PM 48.2 °F - 37.4 °F 66% 29.71 in 6.2 mi South 15.0 mph - N/A   Scattered Clouds
2:15 PM 48.2 °F - 37.4 °F 66% 29.71 in 6.2 mi South 11.5 mph - N/A   Scattered Clouds
2:45 PM 48.2 °F - 37.4 °F 66% 29.71 in 6.2 mi SE 9.2 mph - N/A   Scattered Clouds
3:15 PM 50.0 °F - 37.4 °F 62% 29.68 in 6.2 mi SE 9.2 mph - N/A Rain Light Rain
3:45 PM 50.0 °F - 37.4 °F 62% 29.68 in 6.2 mi ESE 9.2 mph - N/A Rain Light Rain
4:00 PM 50 °F - 37 °F 50% 29.71 in 6 mi ESE 9.2 mph - - Rain Light Rain
4:15 PM 48.2 °F - 37.4 °F 66% 29.68 in 6.2 mi SSE 10.4 mph - N/A Rain Light Rain
4:45 PM 46.4 °F 41.5 °F 41.0 °F 81% 29.68 in 5.0 mi SSE 10.4 mph - N/A Rain Light Rain
5:15 PM 46.4 °F 42.4 °F 41.0 °F 81% 29.68 in 5.0 mi SE 8.1 mph - N/A Rain Light Rain
5:45 PM 46.4 °F 42.9 °F 41.0 °F 81% 29.68 in 5.0 mi SE 6.9 mph - N/A Rain Light Rain
6:15 PM 44.6 °F - 39.2 °F 81% 29.68 in 5.6 mi Calm Calm - N/A Rain Light Rain
6:45 PM 46.4 °F - 41.0 °F 81% 29.68 in 5.6 mi Calm Calm - N/A Rain Light Rain
7:00 PM 47 °F - 41 °F 73% 29.70 in 6 mi Calm Calm - - Rain Light Rain
7:15 PM 46.4 °F - 41.0 °F 81% 29.68 in 5.6 mi Calm Calm - N/A   Scattered Clouds
7:45 PM 46.4 °F - 41.0 °F 81% 29.68 in 5.6 mi Calm Calm - N/A   Scattered Clouds
8:15 PM 46.4 °F - 41.0 °F 81% 29.68 in 5.6 mi Calm Calm - N/A Rain Light Rain
8:45 PM 46.4 °F - 41.0 °F 81% 29.71 in 5.6 mi Calm Calm - N/A Rain Light Rain
9:15 PM 46.4 °F - 41.0 °F 81% 29.71 in 5.6 mi NE 1.2 mph - N/A Rain Light Rain
9:45 PM 46.4 °F - 41.0 °F 81% 29.71 in 5.6 mi ENE 2.3 mph - N/A Rain Light Rain
10:00 PM 46 °F - 41 °F 78% 29.72 in 6 mi ENE 2.3 mph - - Rain Light Rain
10:15 PM 44.6 °F - 41.0 °F 87% 29.68 in 5.6 mi Calm Calm - N/A Rain Light Rain
10:45 PM 44.6 °F - 41.0 °F 87% 29.68 in 5.6 mi NNE 1.2 mph - N/A Rain Light Rain
11:15 PM 44.6 °F - 41.0 °F 87% 29.68 in 5.6 mi Calm Calm - N/A Rain Light Rain
11:45 PM 44.6 °F 43.1 °F 41.0 °F 87% 29.68 in 5.6 mi East 3.5 mph - N/A Rain Light Rain